Location: Chervonnoye
(48.6000°N, 34.4000°E)
Time: 14:53:34
(UTC+00:00)

Cosmos 2237 Rocket - Pass Details

Date: 23 November 2020
Orbit: 833 x 851 km, 71.0° (Epoch: 27 January)

Event Time Altitude Azimuth Distance (km) Brightness Sun altitude
Rises 14:32:03 0° 173° (S) 3,365 5.6 -6.4°
Reaches altitude 10° 14:34:45 10° 162° (SSE) 2,437 4.7 -6.8°
Maximum altitude 14:39:28 29° 104° (ESE) 1,494 3.1 -7.5°
Drops below altitude 10° 14:44:13 10° 46° (NE) 2,457 4.0 -8.2°
Enters shadow 14:44:57 - 43° (NE) 2,704 4.3 -8.3°
